CW3224 Weather Reports


time (UTC)temp
C
wind
direction
speed
KPH
gust
KPH
rain 1hr
cm
rain 24hr
cm
rain mn
cm
humidity
%
barometer
mb
20260504004655 6 260 0.0 0.0 0.00 0.03 0.00 60 1008.7
20260504003653 6 260 0.0 0.0 0.00 0.03 0.00 59 1008.6
20260504002653 7 260 0.0 0.0 0.00 0.03 0.00 56 1008.3
20260504002136 7 263 0.0 0.0 0.00 0.03 0.00 55 1008.3
20260504000651 8 263 0.0 0.0 0.00 0.03 0.00 53 1008.2
20260503235651 8 263 0.0 0.0 0.00 0.03 0.00 52 1008.2
20260503234651 8 263 0.0 0.0 0.00 0.03 0.00 51 1008.2
20260503233651 9 263 0.0 3.2 0.00 0.03 0.00 52 1008.0
20260503232652 9 263 1.6 3.2 0.00 0.03 0.00 51 1007.9
20260503231641 9 264 0.0 4.8 0.00 0.03 0.00 51 1007.9
20260503230641 10 268 1.6 4.8 0.00 0.03 0.00 49 1007.7
20260503225641 10 310 3.2 11.3 0.00 0.03 0.00 49 1007.6
20260503224641 10 265 3.2 4.8 0.00 0.03 0.00 48 1007.6
20260503223641 10 296 4.8 9.7 0.00 0.03 0.00 47 1007.5
20260503222639 10 301 4.8 12.9 0.00 0.03 0.00 47 1007.3
20260503221640 10 136 3.2 11.3 0.00 0.03 0.00 47 1007.3
20260503220639 10 54 4.8 9.7 0.00 0.03 0.00 44 1007.1
20260503215639 10 310 4.8 12.9 0.00 0.03 0.00 45 1007.0
20260503214639 10 47 4.8 12.9 0.00 0.03 0.00 45 1007.0
20260503213640 11 284 4.8 12.9 0.00 0.03 0.00 45 1007.0
20260503212630 11 108 4.8 19.3 0.00 0.03 0.00 47 1006.7
20260503211629 11 321 4.8 14.5 0.00 0.05 0.00 48 1006.7
20260503210629 11 190 3.2 9.7 0.00 0.08 0.00 45 1006.5
20260503205629 11 279 4.8 12.9 0.00 0.08 0.00 49 1006.4
20260503204627 11 248 3.2 11.3 0.00 0.10 0.00 50 1006.4
20260503203627 11 287 3.2 8.0 0.00 0.13 0.00 48 1006.1
20260503202627 11 198 3.2 9.7 0.00 0.13 0.00 47 1006.0
20260503201627 11 54 4.8 12.9 0.00 0.13 0.00 46 1006.0
20260503200626 11 301 6.4 14.5 0.00 0.13 0.00 46 1005.9
20260503195627 11 291 3.2 9.7 0.00 0.13 0.00 46 1006.0
20260503194626 11 262 4.8 14.5 0.00 0.13 0.00 47 1006.0
20260503193626 11 311 4.8 12.9 0.00 0.13 0.00 49 1006.0
20260503192625 11 301 4.8 9.7 0.00 0.13 0.00 50 1006.0
20260503191624 11 103 4.8 9.7 0.00 0.13 0.00 52 1006.0
20260503190624 10 285 3.2 11.3 0.00 0.13 0.00 52 1006.0
20260503190103 10 100 3.2 16.1 0.00 0.13 0.00 55 1006.1
20260503184625 10 35 3.2 11.3 0.00 0.13 0.00 55 1006.1
20260503183625 11 28 3.2 11.3 0.00 0.13 0.00 55 1006.0
20260503182625 11 23 4.8 12.9 0.00 0.13 0.00 54 1006.0
20260503181625 11 356 4.8 17.7 0.00 0.13 0.00 53 1006.0
20260503180624 11 15 4.8 14.5 0.00 0.13 0.00 54 1006.0
20260503175626 10 2 4.8 16.1 0.00 0.13 0.00 55 1006.0
20260503174625 10 14 8.0 19.3 0.00 0.13 0.00 56 1006.0
20260503173624 10 340 4.8 12.9 0.00 0.13 0.00 58 1006.1
20260503172623 10 332 4.8 11.3 0.00 0.13 0.00 59 1006.4
20260503172107 10 143 4.8 12.9 0.00 0.13 0.00 59 1006.4
20260503170624 10 310 6.4 24.1 0.00 0.13 0.00 59 1006.0
20260503131014 6 18 4.8 11.3 0.00 0.13 0.00 84 1006.9
20260503110534 3 85 0.0 3.2 0.00 0.56 0.00 92 1007.1
20260503080517 4 87 0.0 0.0 0.00 0.61 0.00 91 1008.1
20260503072505 4 87 0.0 0.0 0.00 0.61 0.00 91 1008.2
20260503071929 4 87 0.0 0.0 0.00 0.61 0.00 91 1008.6
20260503070450 4 87 0.0 0.0 0.00 0.61 0.00 91 1008.6
20260503054439 5 87 0.0 0.0 0.00 0.61 0.00 90 1009.5
20260503053440 5 87 0.0 0.0 0.00 0.61 0.00 90 1009.5
20260503052437 5 87 0.0 0.0 0.00 0.61 0.00 91 1009.7
20260503051917 5 87 0.0 0.0 0.00 0.61 0.00 90 1009.8
20260503050437 5 87 0.0 0.0 0.00 0.61 0.00 90 1009.8
20260503045435 5 87 0.0 0.0 0.00 0.61 0.00 90 1009.9
20260503044435 5 87 0.0 0.0 0.00 0.61 0.00 90 1010.2
20260503043435 5 87 0.0 0.0 0.00 0.61 0.00 90 1010.2
20260503042436 5 87 0.0 0.0 0.00 0.61 0.00 90 1010.3
20260503041427 5 87 0.0 0.0 0.00 0.61 0.00 90 1010.3
20260503040425 6 87 0.0 0.0 0.00 0.61 0.00 90 1010.3
20260503035425 6 87 0.0 0.0 0.00 0.61 0.61 90 1010.3
20260503034426 6 87 0.0 0.0 0.00 0.61 0.61 90 1010.5
20260503033425 6 87 0.0 0.0 0.00 0.61 0.61 90 1010.5
20260503032426 6 87 0.0 0.0 0.00 0.61 0.61 90 1010.6
20260503031421 6 87 0.0 0.0 0.00 0.61 0.61 90 1010.3
20260503030852 6 87 0.0 0.0 0.00 0.61 0.61 90 1010.3
20260503025421 6 87 0.0 0.0 0.00 0.61 0.61 90 1010.3
20260503025340 6 87 0.0 0.0 0.00 0.61 0.61 90 1010.3
20260503023421 7 87 0.0 0.0 0.00 0.61 0.61 90 1010.3
20260503022415 7 87 0.0 0.0 0.00 0.61 0.61 90 1010.5
20260503021415 7 87 0.0 0.0 0.00 0.61 0.61 90 1010.6
20260503020902 7 87 0.0 0.0 0.00 0.61 0.61 90 1010.6
20260503015411 7 87 0.0 0.0 0.03 0.61 0.61 90 1010.7
20260503014409 7 87 0.0 0.0 0.03 0.61 0.61 90 1010.7
20260503013846 8 87 0.0 0.0 0.03 0.61 0.61 90 1010.7
20260503012409 8 87 0.0 0.0 0.03 0.61 0.61 90 1010.6
20260503011408 8 87 0.0 0.0 0.03 0.61 0.61 90 1010.5
20260503010409 8 87 0.0 0.0 0.03 0.61 0.61 90 1010.5